DELTA 1 DEB, 10707

Orbit data source: Space-Track

DELTA 1 DEB, 10707 is space debris in LEO originally from a launch on Thu, 29 Jul 1976 UTC launched from the Air Force Western Test Range (AFWTR). Debris objects in space refer to the collection of defunct objects orbiting the Earth. Examples of debris include non-operational satellites, rocket bodies, and fragments generated from explosions, collisions, or faulty payload assembly.

Loading next visibility...
Identifier
10707, 1976-077AC
Orbit
LEO
Last TLE update
20 hours ago
Origin
Manufacturer
Unknown
Mission
Spacecraft
Bus & Motor
Unknown
Mass
Unknown
Launch date (UTC)
1976-07-29 (49 years ago)
Launch vehicle
Unknown
Launch site
Air Force Western Test Range (AFWTR)
Object type
Payload
Rocket body
Debris
Shape & HBR
Unknown
Radar Cross Section
Small (<0.1 m²)

Expand to show TLE details & history

TLE from 20 hours ago
0 DELTA 1 DEB
1 10707U 76077AC  25181.56015050  .00000194  00000-0  26716-2 0  9999
2 10707 102.2163 212.6708 0267839 180.6853 336.0059 11.98244600136049
Epoch: 2025-06-30T13:26Z
TLE epoch observation values (Epoch: 2025-06-30T13:26:37.003Z)
Latitude
24.02863°
Longitude
-82.33986°
Altitude
1,494.831 km
Speed
7.205 km/s
True Right ascension
02h 32m 43s
True Declination
23° 54' 47"
Sunlit
Object was in daylight at epoch
Visualization orbit readout
Latitude
-53.82805°
Longitude
-104.19982°
Altitude
1,585.318 km
Speed
7.13 km/s
Apparent Right ascension
05h 28m 03s
Apparent Declination
-67° 40' 36"
Sunlit
Object is in daylight
Visualization observer readout
Local Sidereal Time
21:32:40
Azimuth
150.66° SSE
Elevation
-47.233°
Doppler factor
1
Orbital elements
Apogee altitude
1,902.368 km
Perigee altitude
1,470.37 km
Semi-major axis
8,064.506 km
Eccentricity
0.02678
Inclination
102.2163°
RAAN
212.6708°
Arg. of periapsis
180.6853°
True anomaly
Unknown
Mean anomaly
336.0059°
Eccentric anomaly
Unknown
Mean motion
2.99693 °/min
Orbital period
120.12 mins
BSTAR
0.0026716
Loading maneuver chart data...
Loading SW <> Apogee altitude chart data...
Loading historical data...
Loading historical data...
Loading historical data...
Loading historical data...
Loading historical data...
Loading historical data...
Loading historical data...

DELTA 1 DEB Visibility forecast

Observer location: undefined°, undefined°

Span
Click to sort rows by Start time (UTC) header in descending order
Start Az.
Max El. time (UTC)
Max El. Az.
Max El.
End time (UTC)
End Az.
10 mins2025-07-01 13:20:18.800Z53.65° ENE2025-07-01 13:25:18.800Z92.029° ESE17.931°2025-07-01 13:30:18.800Z130.683° SE
16 mins2025-07-01 15:16:18.800Z16.186° NNE2025-07-01 15:24:18.800Z262.727° W44.75°2025-07-01 15:32:18.800Z204.123° SW
9 mins2025-07-01 17:16:18.800Z344.672° N2025-07-01 17:20:18.800Z313.935° NW18.615°2025-07-01 17:25:18.800Z274.993° WNW
4 mins2025-07-01 22:57:18.800Z49.801° ENE2025-07-01 22:59:18.800Z37.34° NE11.762°2025-07-01 23:01:18.800Z24.877° NE
17 mins2025-07-02 00:46:18.800Z126.708° SE2025-07-02 00:54:18.800Z61.221° ENE36.675°2025-07-02 01:03:18.800Z352.433° N
17 mins2025-07-02 02:43:18.800Z190.492° SSW2025-07-02 02:52:18.800Z265.383° W36.256°2025-07-02 03:00:18.800Z328.263° NNW
|